Flag for Saint Kitts and Nevis Weather past 2 weeks in Basseterre, Saint Kitts and Nevis

Now
79 °F

Passing clouds.


Feels Like: 81 °F
Forecast: 80 / 86 °F
Wind: 2 mph from North

Location: Golden Rock

Current Time: May 27, 2015 at 8:37:14 PM

Latest Report: May 27, 2015 at 8:00 PM


Visibility: N/A

Pressure: 29.95 "Hg

Humidity: 74%

Dew point: 70 °F

Location of BasseterreLocation

Historic Weather in Basseterre — Graph

°F

Basseterre temperature yesterday

Maximum temperature yesterday: 84 °F (at 1:00 PM)
Minimum temperature yesterday: 75 °F (at 8:00 PM)
Average temperature yesterday: 79 °F

Past Weeks' High & Low Weather Summary

 TemperatureHumidityPressure
High88 °F (May 13, 1:00 PM)94% (May 19, 6:00 AM)30.12 "Hg (May 19, 6:00 AM)
Low73 °F (May 27, 6:00 AM)55% (May 18, 11:00 AM)29.92 "Hg (May 27, 4:00 PM)
Average83 °F71%30.04 "Hg
* Reported May 12 7:00 PM — May 27 7:00 PM, Basseterre, Weather by CustomWeather, © 2015

Note: Actual official high and low records may vary slightly from our data, if they occured in-between our weather recording intervals... More about our weather records

Advertising

Basseterre weather history for previous 24 hours

 ConditionsComfort  
Time TempWeatherWind HumidityBarometerVisibility
7:00 PM
Wed, May 27
81 °FPassing clouds.2 mph66%29.95 "HgN/A
6:00 PM81 °FPassing clouds.6 mph70%29.95 "HgN/A
5:00 PM82 °FPassing clouds.7 mph66%29.92 "HgN/A
4:00 PM84 °FPassing clouds.8 mph62%29.92 "HgN/A
3:00 PM81 °FTornado. Scattered clouds.7 mph74%29.95 "HgN/A
2:00 PM82 °FPassing clouds.6 mph66%29.95 "HgN/A
1:00 PM82 °FPassing clouds.6 mph70%29.95 "HgN/A
12:00 PM88 °FPassing clouds.12 mph59%29.98 "HgN/A
11:00 AM86 °FPassing clouds.7 mph62%29.98 "HgN/A
10:00 AM84 °FPassing clouds.9 mph62%29.98 "HgN/A
9:00 AM84 °FPassing clouds.9 mph62%29.98 "HgN/A
8:00 AM81 °FPassing clouds.No wind70%29.98 "HgN/A
7:00 AM77 °FPassing clouds.No wind79%29.98 "HgN/A
6:00 AM73 °FPassing clouds.No wind89%29.95 "HgN/A
9:00 PM
Tue, May 26
75 °FPassing clouds.2 mph89%30.01 "HgN/A
8:00 PM75 °FPassing clouds.2 mph89%30.01 "HgN/A
Weather by CustomWeather, © 2015

See weather overviewHow to use our weather pages